Stations météo

Publicité
Paris-Montsouris, France (7156): Température de l'air & dewpoint: 13.11.2017 20:00:00 - 19.11.2017 20:00:00 (CET)Paris-Montsouris, France (7156): Température de l'air 5cm: 13.11.2017 20:00:00 - 19.11.2017 20:00:00 (CET)Paris-Montsouris, France (7156): Température de l'air -20cm & Température de l'air -100cm: 13.11.2017 20:00:00 - 19.11.2017 20:00:00 (CET)Paris-Montsouris, France (7156): Vitesse du vent & gusts: 13.11.2017 20:00:00 - 19.11.2017 20:00:00 (CET)Paris-Montsouris, France (7156): Direction du vent: 13.11.2017 20:00:00 - 19.11.2017 20:00:00 (CET)Paris-Montsouris, France (7156): reduced air pressure: 13.11.2017 20:00:00 - 19.11.2017 20:00:00 (CET)Paris-Montsouris, France (7156): visibility: 13.11.2017 20:00:00 - 19.11.2017 20:00:00 (CET)Paris-Montsouris, France (7156): Ensoleillement: 13.11.2017 20:00:00 - 19.11.2017 20:00:00 (CET)Paris-Montsouris, France (7156): Quantités de précipitations: 13.11.2017 20:00:00 - 19.11.2017 20:00:00 (CET)
Date & Time tt [°C] td [°C] tt 5cm [°C] tt -20cm [°C] tt -100cm [°C] ff [km/h] ff [knt] fx [km/h] fx [knt] dd ppp [hPa] vv [km] sd [min] rr [mm]
19.11.2017 20:00:00 6,4 2,3 1,4 9,8 12,3 4 2 8 4 W 1025,7 20 0 0,0
19.11.2017 19:00:00 6,5 2,0 0,7 9,8 12,4 4 2 10 6 W 1025,2 20 0 0,0
19.11.2017 18:00:00 6,5 1,8 1,3 9,9 12,4 5 3 15 8 NNW 1025,0 20 0 0,0
19.11.2017 17:00:00 7,7 1,5 - - - 9 5 18 10 NW 1024,6 20 - 0,0
19.11.2017 16:00:00 8,4 1,8 6,4 9,8 12,4 14 7 27 15 N 1024,3 20 56 0,0
19.11.2017 15:00:00 8,6 1,5 7,4 9,8 12,4 14 7 27 15 NNW 1024,2 20 19 0,0
19.11.2017 14:00:00 8,5 2,1 7,2 9,8 12,4 14 7 29 15 N 1024,3 20 3 0,0
19.11.2017 13:00:00 8,5 1,9 7,1 9,8 12,4 10 6 27 15 N 1024,3 20 1 0,0
19.11.2017 12:00:00 8,5 2,7 7,6 9,8 12,4 12 7 25 14 N 1024,3 20 5 0,0
19.11.2017 11:00:00 8,4 3,4 5,3 9,8 12,4 13 7 25 13 N 1023,9 20 41 0,0
19.11.2017 10:00:00 7,5 4,1 3,9 9,8 12,4 9 5 26 14 N 1023,5 20 55 0,0
19.11.2017 09:00:00 7,5 4,3 4,6 9,8 12,4 16 9 31 17 NNE 1023,1 20 12 0,0
19.11.2017 08:00:00 8,0 6,1 6,9 9,8 12,4 13 7 25 14 N 1022,2 20 0 0,0
19.11.2017 07:00:00 8,2 7,1 7,4 9,7 12,4 9 5 20 11 N 1021,6 20 0 0,0
19.11.2017 06:00:00 8,5 7,6 7,9 9,7 12,4 8 5 29 16 NNE 1021,3 9 0 1,2
19.11.2017 05:00:00 9,5 8,6 - - - 9 5 28 15 WNW 1020,6 3,8 - 0,2
19.11.2017 04:00:00 9,4 7,5 8,6 9,7 12,4 11 6 33 18 WNW 1020,4 7 0 0,0
19.11.2017 03:00:00 9,6 6,9 8,8 9,8 12,4 13 7 47 25 WNW 1020,4 17 0 0,0
19.11.2017 02:00:00 9,5 6,6 8,1 9,7 12,4 14 8 39 21 W 1020,5 20 0 0,0
19.11.2017 01:00:00 8,7 6,1 7,5 9,7 12,4 13 7 38 20 W 1021,1 20 0 0,0
19.11.2017 00:00:00 8,7 5,8 7,7 9,7 12,4 17 9 45 25 W 1021,5 20 0 0,0
18.11.2017 23:00:00 8,1 5,2 - - - 13 7 31 17 W 1022,2 17 - 0,0
18.11.2017 22:00:00 8,1 4,7 - - - 11 6 34 18 W 1022,9 19 - -
18.11.2017 21:00:00 8,3 5,0 7,7 9,7 12,4 14 8 29 16 W 1023,2 20 0 0,0
18.11.2017 20:00:00 8,4 5,1 7,8 9,7 12,4 14 7 28 15 WSW 1023,5 20 0 0,0
18.11.2017 19:00:00 8,6 5,0 7,6 9,7 12,5 10 5 24 13 WSW 1023,9 20 0 0,0
18.11.2017 18:00:00 8,5 4,9 7,1 9,7 12,4 8 5 22 12 SW 1024,1 20 0 0,0
18.11.2017 17:00:00 8,7 4,5 6,9 9,7 12,4 11 6 26 14 W 1024,4 20 9 0,0
18.11.2017 16:00:00 8,9 3,7 7,6 9,6 12,5 9 5 24 13 W 1024,4 20 29 0,0
18.11.2017 15:00:00 9,2 4,0 9,8 9,5 12,4 10 5 19 10 W 1025,1 20 0 0,0
18.11.2017 14:00:00 8,8 4,8 9,1 9,5 12,5 9 5 21 12 W 1025,6 20 0 0,0
18.11.2017 13:00:00 8,0 4,6 8,5 9,4 12,5 9 5 19 10 W 1026,1 19 0 0,0
18.11.2017 12:00:00 7,3 5,1 8,0 9,4 12,5 9 5 20 11 WNW 1026,9 14 2 0,0
18.11.2017 11:00:00 7,1 5,1 7,1 9,4 12,5 10 5 21 11 W 1026,7 12 4 0,0
18.11.2017 10:00:00 6,6 4,3 4,8 9,5 12,5 7 4 18 10 W 1026,9 20 0 0,0
18.11.2017 09:00:00 5,1 3,9 0,3 9,5 12,5 5 3 14 7 W 1027,0 19 1 0,0
18.11.2017 08:00:00 4,3 3,1 -0,2 9,6 12,5 5 3 7 4 SSW 1026,3 14 0 0,0
18.11.2017 07:00:00 4,0 2,8 -0,3 9,7 12,5 5 3 10 5 S 1026,0 13 0 0,0
18.11.2017 06:00:00 4,4 2,9 -0,2 9,8 12,5 3 1 12 6 S 1026,2 17 0 0,0
18.11.2017 05:00:00 5,1 3,8 1,2 9,8 12,5 4 2 7 4 WSW 1026,6 17 0 0,0
18.11.2017 04:00:00 5,7 4,0 0,7 9,9 12,5 4 2 7 4 W 1026,7 18 0 0,0
18.11.2017 03:00:00 5,8 4,0 0,3 10,0 12,5 5 3 7 4 W 1027,2 19 0 0,0
18.11.2017 02:00:00 5,6 2,6 0,1 10,1 12,5 0 0 6 4 N 1027,1 20 0 0,0
18.11.2017 01:00:00 6,1 2,9 0,9 10,2 12,5 5 3 9 5 NE 1027,2 20 0 0,0
18.11.2017 00:00:00 6,4 3,0 1,4 10,3 12,5 6 3 14 7 NE 1027,6 20 0 0,0
17.11.2017 23:00:00 7,1 3,2 2,2 10,3 12,5 6 3 16 9 E 1027,5 20 0 0,0
17.11.2017 22:00:00 7,6 4,0 3,0 10,4 12,5 10 5 19 10 ENE 1027,8 20 0 0,0
17.11.2017 21:00:00 8,8 4,8 6,4 10,4 12,5 10 5 24 13 ENE 1027,6 20 0 0,0
17.11.2017 20:00:00 9,1 5,8 6,4 10,4 12,5 8 4 26 14 ENE 1027,7 20 0 0,0
17.11.2017 19:00:00 9,9 6,8 8,0 10,4 12,5 12 6 24 13 NE 1027,5 19 0 0,0
17.11.2017 18:00:00 10,3 7,4 9,1 10,3 12,5 12 6 18 10 NNE 1027,3 19 0 0,0
17.11.2017 17:00:00 10,4 7,3 9,2 10,3 12,5 7 4 18 10 NE 1026,9 15 0 0,0
17.11.2017 16:00:00 10,5 7,7 10,3 10,3 12,5 9 5 20 11 NNE 1027,3 11 0 0,0
17.11.2017 15:00:00 10,5 8,3 10,2 10,2 12,5 12 6 21 12 NE 1027,4 7 0 0,0
17.11.2017 14:00:00 10,5 8,3 10,6 10,1 12,5 7 4 21 11 NE 1027,5 7 0 0,0
17.11.2017 13:00:00 10,5 8,3 10,6 10,1 12,5 11 6 19 10 NE 1027,6 8 0 0,0
17.11.2017 12:00:00 10,5 8,8 9,8 10,1 12,6 8 4 16 9 ENE 1027,9 6 0 0,0
17.11.2017 11:00:00 10,1 8,4 9,9 10,0 12,5 8 5 16 9 NE 1028,0 5 0 0,0
17.11.2017 10:00:00 10,4 8,2 9,8 10,0 12,6 7 4 14 7 NE 1027,8 7 0 0,0
17.11.2017 09:00:00 9,8 7,2 8,9 10,0 12,6 2 1 8 5 W 1027,7 12 5 0,0
17.11.2017 08:00:00 9,7 6,6 8,7 10,0 12,6 3 2 10 5 NNE 1027,2 15 0 0,0
17.11.2017 07:00:00 9,6 6,5 8,2 10,0 12,5 6 3 13 7 NNW 1027,1 14 0 0,0
17.11.2017 06:00:00 9,4 6,7 7,9 10,0 12,6 7 4 14 7 N 1026,8 15 0 0,0
17.11.2017 05:00:00 8,7 6,3 7,1 10,0 12,6 4 2 6 4 W 1026,7 14 0 0,0
17.11.2017 04:00:00 8,8 6,2 7,5 10,0 12,6 4 2 8 4 S 1026,5 14 0 0,0
17.11.2017 03:00:00 8,7 6,1 7,8 10,0 12,6 3 1 5 3 S 1026,6 14 0 0,0
17.11.2017 02:00:00 8,6 6,0 - - - 4 2 5 3 SSW 1026,3 15 - 0,0
17.11.2017 01:00:00 8,7 6,0 6,7 10,0 12,6 3 2 7 4 S 1026,3 16 0 0,0
17.11.2017 00:00:00 9,0 5,9 7,6 10,0 12,6 4 2 7 4 SSW 1026,4 16 0 0,0
16.11.2017 23:00:00 8,9 6,0 7,8 10,0 12,6 0 0 5 3 N 1026,4 16 0 0,0
16.11.2017 22:00:00 8,7 5,6 6,7 10,0 12,6 2 1 5 3 S 1026,5 17 0 0,0
16.11.2017 21:00:00 8,6 5,5 6,4 10,1 12,6 4 2 11 6 SSW 1026,1 18 0 0,0
16.11.2017 20:00:00 8,7 5,3 5,1 10,0 12,6 6 3 11 6 SSW 1025,8 18 0 0,0
16.11.2017 19:00:00 9,4 5,4 7,0 10,0 12,6 5 3 11 6 SSW 1025,4 19 0 0,0
16.11.2017 18:00:00 9,7 5,1 7,4 10,0 12,6 4 2 8 4 S 1025,1 19 0 0,0
16.11.2017 17:00:00 9,9 4,9 8,1 9,9 12,6 5 3 8 4 S 1024,8 18 0 0,0
16.11.2017 16:00:00 10,8 5,1 10,4 9,9 12,6 4 2 16 9 SSE 1024,5 20 0 0,0
16.11.2017 15:00:00 11,4 5,3 - - - 8 4 13 7 SSE 1024,2 19 - 0,0
16.11.2017 14:00:00 11,3 4,5 11,9 9,7 12,7 3 1 8 4 ENE 1024,6 20 0 0,0
16.11.2017 13:00:00 11,1 3,4 11,0 9,7 12,6 2 1 12 6 WSW 1024,8 19 32 0,0
16.11.2017 12:00:00 9,9 4,1 8,6 9,7 12,7 3 2 9 5 N 1025,1 19 34 0,0
16.11.2017 11:00:00 8,1 3,9 8,6 9,7 12,7 2 1 9 5 N 1025,4 17 0 0,0
16.11.2017 10:00:00 7,7 4,5 6,6 9,6 12,6 4 2 18 10 S 1025,0 14 29 0,0
16.11.2017 09:00:00 7,3 5,1 4,7 9,7 12,7 8 4 18 10 SSE 1024,6 16 31 0,0
16.11.2017 08:00:00 7,4 5,0 4,9 9,7 12,7 3 2 17 9 SSE 1024,5 20 0 0,0
16.11.2017 07:00:00 7,5 5,8 5,8 9,7 12,7 5 3 12 7 E 1024,3 19 0 0,0
16.11.2017 06:00:00 7,2 6,0 4,1 9,7 12,7 6 3 13 7 NE 1024,2 17 0 0,0
16.11.2017 05:00:00 6,9 5,7 3,8 9,8 12,7 8 4 13 7 ENE 1024,3 19 0 0,0
16.11.2017 04:00:00 6,9 6,0 3,4 9,8 12,7 2 1 9 5 NE 1024,6 12 0 0,0
16.11.2017 03:00:00 6,5 5,6 1,4 9,9 12,7 0 0 7 4 N 1024,9 9 0 0,0
16.11.2017 02:00:00 6,5 5,4 1,7 9,9 12,7 4 2 9 5 S 1024,9 10 0 0,0
16.11.2017 01:00:00 6,7 5,5 2,4 10,0 12,7 4 2 7 4 S 1025,0 11 0 0,0
16.11.2017 00:00:00 7,1 5,9 2,1 10,0 12,7 4 2 9 5 W 1025,6 15 0 0,0
15.11.2017 23:00:00 7,4 5,4 3,3 10,0 12,7 3 2 15 8 SSW 1025,5 15 0 0,0
15.11.2017 22:00:00 8,5 5,9 6,3 10,0 12,8 6 3 14 8 S 1025,9 14 0 0,0
15.11.2017 21:00:00 8,9 6,0 8,0 10,0 12,7 7 4 15 8 S 1026,0 12 0 0,0
15.11.2017 20:00:00 9,1 5,6 7,9 10,0 12,7 6 4 10 6 S 1025,9 20 0 0,0
15.11.2017 19:00:00 9,2 5,7 7,3 10,0 12,8 5 3 16 8 SSE 1025,8 18 0 0,0
15.11.2017 18:00:00 9,4 6,1 7,6 10,0 12,8 8 4 15 8 SSE 1025,7 17 0 0,0
15.11.2017 17:00:00 9,7 6,4 7,9 9,9 12,8 3 2 11 6 W 1026,2 18 24 0,0
15.11.2017 16:00:00 9,7 6,0 8,9 9,9 12,8 5 3 11 6 SSW 1025,9 17 55 0,0
15.11.2017 15:00:00 9,4 6,7 9,4 9,8 12,8 6 3 13 7 S 1026,0 13 26 0,0
15.11.2017 14:00:00 8,5 6,6 8,6 9,7 12,8 5 3 11 6 S 1026,3 8 0 0,0
15.11.2017 13:00:00 7,7 6,0 8,5 9,7 12,8 5 3 14 8 SSW 1026,9 4,5 0 0,0
15.11.2017 12:00:00 7,6 5,6 7,5 9,7 12,8 7 4 14 7 SSE 1027,4 6 0 0,0
15.11.2017 11:00:00 7,2 4,5 7,7 9,7 12,8 5 3 10 6 S 1028,0 12 0 0,0
15.11.2017 10:00:00 6,8 4,5 6,7 9,6 12,8 3 2 9 5 S 1027,7 13 0 0,0
15.11.2017 09:00:00 6,3 4,3 5,9 9,7 12,8 6 3 12 6 S 1027,6 12 0 0,0
15.11.2017 08:00:00 5,8 4,0 5,6 9,6 12,8 4 2 14 7 S 1027,0 11 0 0,0
15.11.2017 07:00:00 5,5 4,0 5,0 9,7 12,8 6 3 16 9 SSE 1027,0 9 0 0,0
15.11.2017 06:00:00 5,5 4,0 5,0 9,6 12,8 9 5 16 9 S 1026,9 9 0 0,0
15.11.2017 05:00:00 5,3 3,9 4,9 9,6 12,8 8 4 16 9 SSW 1027,0 7 0 0,0
15.11.2017 04:00:00 5,3 3,9 4,8 9,7 12,8 6 4 16 9 SSW 1027,4 7 0 0,0
15.11.2017 03:00:00 5,4 4,0 4,7 9,7 12,8 9 5 14 8 S 1027,6 7 0 0,0
15.11.2017 02:00:00 5,1 3,8 4,3 9,7 12,9 6 4 16 9 SSW 1027,7 7 0 0,0
15.11.2017 01:00:00 5,4 3,9 - - - 9 5 18 10 S 1027,9 8 - -
15.11.2017 00:00:00 6,2 4,4 5,1 9,7 12,9 8 4 12 7 S 1027,8 10 0 0,0
14.11.2017 23:00:00 6,5 4,5 4,8 9,7 12,9 6 3 15 8 S 1027,8 11 0 0,0
14.11.2017 22:00:00 7,5 4,8 4,1 9,8 12,9 8 4 14 8 SSW 1028,0 14 0 0,0
14.11.2017 21:00:00 7,7 3,9 3,7 9,8 12,9 5 3 14 7 SSW 1027,8 20 0 0,0
14.11.2017 20:00:00 9,1 4,1 6,6 9,8 12,9 5 3 13 7 S 1027,7 20 0 0,0
14.11.2017 19:00:00 8,8 3,6 4,8 9,8 12,9 4 2 11 6 W 1027,5 20 0 0,0
14.11.2017 18:00:00 8,7 2,9 4,4 9,8 12,9 4 2 11 6 W 1027,1 20 0 0,0
14.11.2017 17:00:00 9,8 2,9 7,2 9,8 12,9 7 4 14 7 W 1026,9 20 27 0,0
14.11.2017 16:00:00 10,1 2,9 8,1 9,7 12,9 7 4 18 10 WNW 1026,9 20 45 0,0
14.11.2017 15:00:00 10,5 2,8 9,1 9,6 12,9 6 4 21 11 NW 1027,0 20 30 0,0
14.11.2017 14:00:00 10,5 2,6 11,4 9,6 12,9 8 4 16 9 W 1027,2 20 47 0,0
14.11.2017 13:00:00 10,5 2,6 10,0 9,6 12,9 5 3 15 8 W 1027,5 20 57 0,0
14.11.2017 12:00:00 9,6 4,0 9,1 9,6 12,9 9 5 16 9 S 1027,9 20 60 0,0
14.11.2017 11:00:00 7,6 4,0 4,2 9,6 12,9 4 2 10 5 SSW 1028,3 20 60 0,0
14.11.2017 10:00:00 5,7 3,5 4,1 9,6 12,9 5 3 8 4 SW 1028,1 18 1 0,0
14.11.2017 09:00:00 5,6 3,6 2,8 9,6 12,9 3 2 11 6 SSW 1027,7 19 11 0,0
14.11.2017 08:00:00 4,7 3,0 1,5 9,7 12,9 4 2 8 5 W 1027,4 20 0 0,0
14.11.2017 07:00:00 4,4 3,2 0,2 9,8 12,9 4 2 8 4 WNW 1027,3 20 0 0,0
14.11.2017 06:00:00 4,2 2,5 0,7 9,8 12,9 3 2 10 6 NW 1027,2 20 0 0,0
14.11.2017 05:00:00 4,3 3,0 0,0 9,9 13,0 6 3 14 7 W 1026,8 20 0 0,0
14.11.2017 04:00:00 4,7 2,9 1,2 10,0 13,0 6 3 16 8 WNW 1027,0 20 0 0,0
14.11.2017 03:00:00 4,8 2,8 0,8 10,0 13,0 7 4 18 10 NW 1027,1 20 0 0,0
14.11.2017 02:00:00 5,4 3,1 1,3 10,1 13,0 8 4 15 8 NW 1026,7 20 0 0,0
14.11.2017 01:00:00 5,5 3,0 1,9 10,1 13,0 9 5 19 11 NNW 1026,6 20 0 0,0
14.11.2017 00:00:00 5,9 3,1 2,1 10,2 13,0 10 5 23 12 NNW 1026,8 20 0 0,0
13.11.2017 23:00:00 6,3 3,3 3,2 10,2 13,0 9 5 24 13 NNW 1026,8 20 0 0,0
13.11.2017 22:00:00 7,2 3,6 5,8 10,2 13,0 10 5 27 15 N 1026,8 20 0 0,0
13.11.2017 21:00:00 7,2 3,4 5,1 10,3 13,0 12 7 27 15 N 1026,4 20 0 0,0
13.11.2017 20:00:00 7,6 3,3 4,7 10,3 12,9 12 6 25 14 NNW 1026,0 20 0 0,0

tt = Température de l'air
td = dewpoint
tt 5cm = Température de l'air 5cm
tt -20cm = Température de l'air -20cm
tt -100cm = Température de l'air -100cm
ff = Vitesse du vent
fx = gusts
dd = Direction du vent
ppp = reduced air pressure
vv = visibility
sd = Ensoleillement
rr = Quantités de précipitations

stations d'obs. à proximité